Content
SEND FEEDBACK

Daily
Averages
Monthly
Summary
United States of America

ASHTON, IDAHO


Home > North America > United States > Idaho
Elevation: 5223 feet     Latitude: 44 05N     Longitude: 111 27W

WEATHER
 
SELECT A DAY
Number of Records: 165,111;   Date Range: 8/13/98 - 7/22/14
 
SHARE

PRINT THIS DATA

[ ← Previous Day ]
WEATHER ALMANAC - JANUARY 31, 2013
[ Next Day → ]
[ °C ]   °F
Weather ElementAverageHighLow
Temperature30.8 °F33.8 °F (2:40 pm)27 °F (1:53 am)
Dewpoint27.6 °F30 °F (7:53 pm)24.8 °F (2:12 am)
Humidity88.1 %93 % (5:07 am)81 % (2:40 pm)
Barometer30.27 in30.35 in (11:53 am)30.15 in (2:12 am)
Wind Speed10.9 mph17.3 mph (6:53 am)
Wind Gust24.2 mph (6:53 am)
Weather ElementAverage
Visibility10 mi
Wind DirectionSSW (202.3 °)

Weather ElementTotal
Precipitation---
Heating Degree Days34.6 (Base 65)
Averaged from 31 records on January 31, 2013
WEATHER CONDITIONS BREAKOUT
WIND DIRECTION BREAKOUT
WEATHER BY HOUR - JANUARY 31, 2013
[ °C ]   °F
Local TimeTemperatureDewpointHumidityBarometerVisibilityWind DirectionWind SpeedGust SpeedPrecipitationEventsConditions
1:53 AM27.0 °F25.0 °F92 %30.23 in10.0 miSSW (200°)12.7 mphClear
2:12 AM28.4 °F24.8 °F86 %30.15 in10.0 miSouth (190°)12.7 mphScattered Clouds
2:53 AM27.0 °F25.0 °F92 %30.25 in10.0 miSouth (190°)13.8 mphMostly Cloudy
3:53 AM28.0 °F26.1 °F92 %30.25 in10.0 miSouth (190°)12.7 mphOvercast
4:53 AM28.9 °F27.0 °F92 %30.26 in10.0 miSSW (200°)15.0 mphOvercast
5:07 AM28.4 °F26.6 °F93 %30.19 in10.0 miSSW (200°)11.5 mphOvercast
5:53 AM28.9 °F27.0 °F92 %30.27 in10.0 miSSW (200°)12.7 mph20.7 mphOvercast
6:09 AM28.4 °F26.6 °F93 %30.19 in10.0 miSSW (210°)16.1 mphOvercast
6:53 AM30.0 °F27.0 °F88 %30.27 in10.0 miSSW (210°)17.3 mph24.2 mphOvercast
7:50 AM30.2 °F26.6 °F86 %30.21 in10.0 miSSW (210°)15.0 mph21.9 mphOvercast
7:53 AM30.0 °F27.0 °F88 %30.30 in10.0 miSSW (210°)13.8 mph21.9 mphOvercast
8:53 AM30.0 °F27.0 °F88 %30.31 in10.0 miSW (220°)17.3 mph24.2 mphOvercast
9:53 AM30.0 °F28.0 °F92 %30.32 in10.0 miSSW (210°)13.8 mph21.9 mphOvercast
10:53 AM30.9 °F28.0 °F89 %30.34 in10.0 miSSW (210°)13.8 mph20.7 mphOvercast
11:53 AM32.0 °F28.0 °F85 %30.35 in10.0 miSSW (210°)13.8 mphOvercast
12:53 PM33.1 °F28.9 °F85 %30.32 in10.0 miSSW (210°)13.8 mph18.4 mphOvercast
1:53 PM33.1 °F28.9 °F85 %30.32 in10.0 miSSW (210°)16.1 mphOvercast
2:40 PM33.8 °F28.4 °F81 %30.22 in10.0 miSW (220°)11.5 mphOvercast
2:53 PM33.1 °F28.0 °F82 %30.31 in10.0 miSW (220°)12.7 mphOvercast
3:03 PM33.8 °F28.4 °F81 %30.23 in10.0 miSW (230°)10.4 mphOvercast
3:53 PM33.1 °F28.0 °F82 %30.31 in10.0 miSW (220°)10.4 mphOvercast
4:03 PM33.8 °F28.4 °F81 %30.23 in10.0 miSW (220°)9.2 mphOvercast
4:53 PM33.1 °F28.0 °F82 %30.29 in10.0 miSSW (210°)12.7 mphOvercast
5:53 PM32.0 °F28.9 °F88 %30.30 in10.0 miSSW (210°)4.6 mphOvercast
6:53 PM30.9 °F28.9 °F92 %30.29 in10.0 miWSW (240°)3.5 mphMostly Cloudy
7:40 PM30.2 °F28.4 °F93 %30.21 in10.0 miWest (260°)4.6 mphOvercast
7:53 PM32.0 °F30.0 °F92 %30.29 in10.0 miWSW (250°)4.6 mphOvercast
8:53 PM30.9 °F28.9 °F92 %30.29 in10.0 miCalmOvercast
9:53 PM30.9 °F28.0 °F89 %30.28 in10.0 miCalmOvercast
10:53 PM30.9 °F28.0 °F89 %30.27 in10.0 miWest (260°)5.8 mphOvercast
11:53 PM30.9 °F28.0 °F89 %30.25 in10.0 miWSW (250°)4.6 mphOvercast
Hourly data recorded from KRXE, located miles away from Ashton, Idaho







STORIES FROM OUR PARTNERS